Find Starlink 5923

NORAD ID: 56489 Int'l Des: 2023-064 Owner: SPXS Country: US Constellation: starlink operational
LEOCIRCULAR

Live Position

Loading 3D Globe...

About Starlink 5923

Description loading...

Upcoming Passes

Passes for default location (London). Set your location on the main map for personalized predictions.

Altitude History

Loading altitude history...

Two-Line Element Set

1 56489U 23064AT 26105.15227441 .00000165 00000-0 21581-4 0 9990
2 56489 70.0004 12.5479 0002817 269.1772 90.9064 14.98330408161696
Epoch: Apr 15, 2026 • Age: 9 hours

Current Status

Altitude 595.5 km
Velocity 7.56 km/s
Sub-Earth Point -69.48°S, 129.56°W
Launch Date May 10, 2023
Age 2.9 years
Type internet

Technical Details

Classification Payload
Mass 305.00 kg
Dry Mass 290.00 kg
Total Mass 305.00 kg
Length 0.20 m
Diameter 2.80 m
Span 9.00 m
Shape Box + pan
Manufacturer SPXS
Bus Type Starlink
Phase Status In Orbit
Owner/State SPXS/US

Most Searched